#timestamp,LO_Frequency,Hit,StdDev 
1552744815.7,286047004.2,N
1552744835.6,286047003.9,N
1552744855.4,286047004.0,N
1552744875.2,286047001.3,N
1552744895.1,286046999.7,N
1552744896.0,286046999.7,N
1552744915.8,286047001.7,N
1552744935.6,286047004.0,N
1552744955.5,286047004.4,N
1552744975.3,286047005.5,N
1552744995.2,286047005.3,N
1552745015.9,286047006.0,Y
1552745035.7,286047001.7,P
1552745055.6,286047001.4,P
1552745075.4,286047002.3,P
1552745095.2,286046999.8,N
1552745115.1,286046998.6,N
1552745116.0,286046998.6,N
1552745165.8,286046998.1,E
1552745175.7,286047002.5,N
1552745195.6,286047002.6,P
1552745215.4,286047000.1,N
1552745235.3,286047002.6,N
1552745255.1,286046999.7,N
1552745256.0,286046999.7,N
1552745275.8,286047000.4,N
1552745295.7,286046997.0,N
1552745315.5,286046996.9,N
1552745335.3,286046994.9,N
1552745355.2,286046998.0,N
1552745375.0,286046997.3,N
1552745375.9,286046997.3,N
1552745395.7,286046996.8,N
1552745415.6,286046996.9,N
1552745435.4,286046996.7,N
1552745455.3,286046996.5,N
1552745475.1,286046998.4,N
1552745476.0,286046998.4,N
1552745495.8,286047000.0,N
1552745515.7,286046996.6,N
1552745535.5,286046994.9,N
1552745555.3,286046994.9,N
1552745575.2,286046991.9,Y
1552745595.0,286046991.8,P
1552745595.9,286046991.8,N
1552745615.8,286046991.1,N
1552745635.6,286046989.4,Y
1552745655.4,286046993.5,P
1552745675.3,286046991.7,P
1552745695.1,286046990.9,P
1552745715.9,286046988.9,Y
1552745735.7,286046998.0,P
1552745755.5,286046997.4,N
1552745775.4,286046996.8,N
1552745795.2,286046998.5,N
1552745815.0,286046998.5,N
1552745815.9,286046998.5,N
1552745835.8,286047002.2,N
1552745855.6,286047000.2,N
1552745875.5,286047002.7,N
1552745895.3,286047000.6,N
1552745915.1,286047004.4,N
1552745935.9,286047001.4,N
1552745955.7,286047002.2,N
1552745975.5,286047002.1,N
1552745995.4,286047004.2,N
1552746015.2,286047003.2,N
1552746035.0,286047003.1,N
1552746035.9,286047003.1,N
1552746055.8,286047005.9,N
1552746075.6,286047004.5,N
1552746095.5,286047007.3,N
1552746115.3,286047006.8,N
1552746135.1,286047008.6,N
1552746155.9,286047008.4,N
1552746175.7,286047008.4,N
1552746195.5,286047007.8,N
1552746215.4,286047009.9,N
1552746235.2,286047009.3,N
1552746255.1,286047010.5,N
1552746256.0,286047010.5,N
1552746275.8,286047010.5,N
1552746295.6,286047009.4,N
1552746315.5,286047013.8,Y
1552746335.3,286047004.9,P
1552746355.1,286047005.8,P
1552746375.9,286047004.0,P
1552746395.7,286047000.3,N
1552746415.6,286046999.5,N
1552746435.4,286046995.6,N
1552746455.2,286046994.7,N
1552746475.1,286046993.2,N
1552746476.0,286046993.2,N
1552746495.8,286046990.3,N
1552746515.6,286046989.4,N
1552746535.5,286046987.9,N
1552746555.3,286046986.4,N
1552746575.2,286046984.8,N
1552746595.9,286046981.2,N
1552746615.7,286046981.0,N
1552746635.6,286046983.6,N
1552746655.4,286046979.2,N
1552746675.2,286046977.4,N
1552746695.1,286046976.1,N
1552746696.0,286046976.1,N
1552746715.8,286046976.3,N
1552746735.7,286046974.5,N
1552746755.5,286046975.7,N
1552746775.3,286046980.4,N
1552746795.2,286046981.1,N
1552746815.9,286046983.2,N
1552746835.7,286046982.9,N
1552746855.6,286046984.1,N
1552746875.4,286046985.4,N
1552746895.2,286046988.4,N
1552746915.1,286046987.8,N
1552746916.0,286046987.8,N
1552746935.8,286046987.0,N
1552746955.7,286046989.7,N
1552746975.5,286046989.9,N
1552746995.3,286046988.5,N
1552747015.2,286046990.9,N
1552747035.0,286046993.0,N
1552747035.9,286046993.0,N
1552747055.7,286046994.3,N
1552747075.6,286046996.1,N
1552747095.4,286046995.9,N
1552747115.3,286046995.1,N
1552747135.1,286046997.0,N
1552747136.0,286046997.0,N
1552747155.8,286046999.1,N
1552747175.7,286046996.6,N
1552747195.5,286046997.6,N
1552747215.3,286046995.0,N
1552747235.2,286046995.1,N
1552747255.0,286046995.5,N
1552747255.9,286046995.5,N
1552747275.8,286046995.6,N
1552747295.6,286046999.3,N
1552747315.4,286046999.2,N
1552747335.3,286046998.4,N
1552747355.1,286047001.2,N
1552747375.8,286046998.8,N
1552747395.7,286046998.8,N
1552747415.5,286046998.5,N
1552747435.4,286047001.0,N
1552747455.2,286047002.8,N
1552747475.0,286047002.1,N
1552747475.9,286047002.1,N
1552747495.8,286047001.3,N
1552747515.6,286047004.3,N
1552747535.4,286047001.4,N
1552747555.3,286047002.7,N
1552747575.1,286047002.7,N
1552747595.9,286047002.1,N
1552747615.7,286047000.1,N
1552747635.5,286047003.9,N
1552747655.4,286047004.1,N
1552747675.2,286047003.7,N
1552747695.0,286047004.3,N
1552747695.9,286047004.3,N
1552747715.8,286047003.4,N
1552747735.6,286047005.1,N
1552747755.5,286047005.3,N
1552747775.3,286047005.1,N
1552747795.1,286047005.7,N
1552747815.9,286047005.8,N
1552747835.7,286047005.4,N
1552747855.5,286047005.3,N
1552747875.4,286047007.6,Y
1552747895.2,286047003.6,P
1552747915.1,286047003.4,P
1552747916.0,286047003.4,P
1552747935.8,286047003.4,Y
1552747955.6,286047001.1,P
1552747975.5,286047000.3,N
1552747995.3,286046998.1,N
1552748015.1,286046998.2,N
1552748035.9,286047000.8,N
1552748055.7,286046999.0,N
1552748075.6,286046998.6,N
1552748095.4,286046998.3,N
1552748115.2,286046998.8,N
1552748135.1,286046998.7,N
1552748136.0,286046998.7,N
1552748155.8,286046999.5,N
1552748175.6,286046999.5,N
1552748195.5,286046997.2,N
1552748215.3,286046997.9,N
1552748235.2,286046998.8,N
1552748255.9,286047000.7,N
1552748275.7,286046999.7,N
1552748295.6,286047001.3,N
1552748315.4,286047003.2,N
1552748335.2,286047001.4,N
1552748355.1,286047002.6,N
1552748356.0,286047002.6,N
1552748375.8,286047002.7,N
1552748395.7,286047002.0,N
